This is the latest recevied weather packets stored in our database for station/object KI5RAB. If no packets are shown the sender has not sent any weather packets the latest 10 day(s).
| Time | Temp. | Humidity | Pressure | Rain* | Wind** | Luminosity | Snow |
|---|---|---|---|---|---|---|---|
| 1777754600 | 23.33° C | 40% | 1023.8 hPa | 0 mm | - | 592 W/m² | - |
| 1777754297 | 23.33° C | 39% | 1023.9 hPa | 0 mm | - | 604 W/m² | - |
| 1777753995 | 23.89° C | 39% | 1024 hPa | 0 mm | - | 616 W/m² | - |
| 1777753694 | 23.89° C | 39% | 1023.6 hPa | 0 mm | - | 625 W/m² | - |
| 1777753392 | 24.44° C | 39% | 1024 hPa | 0 mm | - | 635 W/m² | - |
| 1777753090 | 23.33° C | 39% | 1024 hPa | 0 mm | - | 646 W/m² | - |
| 1777752786 | 24.44° C | 39% | 1024.1 hPa | 0 mm | - | 652 W/m² | - |
| 1777752482 | 23.33° C | 42% | 1024.1 hPa | 0 mm | - | 661 W/m² | - |
| 1777752178 | 23.89° C | 43% | 1024.2 hPa | 0 mm | - | 670 W/m² | - |
| 1777751877 | 23.33° C | 41% | 1024.2 hPa | 0 mm | - | 678 W/m² | - |
| 1777751573 | 22.78° C | 41% | 1024.1 hPa | 0 mm | - | 686 W/m² | - |
| 1777751270 | 22.78° C | 39% | 1024.4 hPa | 0 mm | - | 694 W/m² | - |
| 1777750967 | 23.89° C | 39% | 1024.4 hPa | 0 mm | - | 703 W/m² | - |
| 1777750662 | 23.33° C | 40% | 1024.3 hPa | 0 mm | - | 710 W/m² | - |
| 1777750360 | 23.89° C | 42% | 1024.3 hPa | 0 mm | - | 714 W/m² | - |
| 1777750060 | 22.78° C | 41% | 1024.4 hPa | 0 mm | - | 719 W/m² | - |
| 1777749758 | 22.22° C | 43% | 1024.1 hPa | 0 mm | - | 724 W/m² | - |
| 1777749454 | 22.78° C | 45% | 1024.3 hPa | 0 mm | - | 728 W/m² | - |
| 1777749152 | 22.78° C | 44% | 1024.2 hPa | 0 mm | - | 733 W/m² | - |
| 1777748849 | 23.33° C | 44% | 1024.3 hPa | 0 mm | - | 737 W/m² | - |
| 1777748547 | 22.78° C | 45% | 1024.6 hPa | 0 mm | - | 743 W/m² | - |
| 1777748247 | 22.22° C | 46% | 1024.6 hPa | 0 mm | - | 743 W/m² | - |
| 1777747943 | 22.22° C | 46% | 1024.6 hPa | 0 mm | - | 743 W/m² | - |
| 1777747640 | 22.22° C | 45% | 1024.7 hPa | 0 mm | - | 747 W/m² | - |
| 1777747335 | 22.22° C | 44% | 1024.6 hPa | 0 mm | - | 749 W/m² | - |
* Rain latest hour (hover to see other rain measurements)
** Current wind speed in m/s (hover to see current wind gust speed)